Location: ??????????
(42.1626°N, 44.1160°E)
Time: 22:26:08
(UTC+00:00)

FENGYUN 1C DEB - Pass Details

Date: 30 September 2021
Orbit: 836 x 1129 km, 99.1° (Epoch: 22 October)

Event Time Altitude Azimuth Distance (km) Brightness Sun altitude
Exits shadow 22:54:42 11° 359° (N) 2,410 ? -42.5°
Drops below altitude 10° 22:54:52 10° 359° (N) 2,469 ? -42.5°
Sets 22:57:16 0° 353° (N) 3,397 ? -42.2°
